Weather History for Boothville, LA

Change the Weather History Date:

Thursday, August 1, 2013

  Actual Average Record
Temperature  
Mean Temperature 86 °F -  
Max Temperature 91 °F - - ()
Min Temperature 81 °F - - ()
Cooling Degree Days 21    
Growing Degree Days 36 (Base 50)    
Moisture  
Dew Point 76 °F    
Average Humidity 74    
Maximum Humidity 85    
Minimum Humidity 59    
Precipitation  
Precipitation 0.00 in - - ()
Sea Level Pressure  
Sea Level Pressure 30.00 in    
Wind  
Wind Speed 7 mph (West)    
Max Wind Speed 15 mph    
Max Gust Speed 21 mph    
Visibility 10 miles    
Events Rain    
T = Trace of Precipitation, MM = Missing Value Source: NWS Daily Summary

Daily Weather History Graph

Daily Weather History Graph

Search for Another Location

Airport:

Trip Planner

Search our weather history database for the weather conditions in past years. The results will help you decide how hot, cold, wet, or windy it might be!

Date:

Astronomy

Aug. 01, 2013 Rise Set
Actual Time 6:18 AM CDT 7:49 PM CDT
Civil Twilight 5:52 AM CDT 8:15 PM CDT
Nautical Twilight 5:21 AM CDT 8:45 PM CDT
Astronomical Twilight 4:49 AM CDT 9:17 PM CDT
Moon 1:56 AM CDT 3:55 PM CDT
Length of Visible Light 14h 22m
Length of Day
13h 31m
Waning Crescent, 23% of the Moon is Illuminated
Aug 1
Waning Crescent
Aug 6
New
Aug 14
First Quarter
Aug 20
Full
Aug 28
Last Quarter

Hourly Weather History & Observations

Time (CDT) Temp. Heat Index Dew Point Humidity Pressure Visibility Wind Dir Wind Speed Gust Speed Precip Events Conditions
12:51 AM 82.9 °F 90.8 °F 75.9 °F 79% 30.02 in 10.0 mi WSW 5.8 mph - N/A   Partly Cloudy
1:51 AM 82.9 °F 90.2 °F 75.0 °F 77% 30.00 in 10.0 mi WSW 5.8 mph - N/A   Partly Cloudy
2:51 AM 82.9 °F 90.2 °F 75.0 °F 77% 30.00 in 10.0 mi WSW 6.9 mph - N/A   Clear
3:51 AM 82.0 °F 89.4 °F 75.9 °F 82% 30.00 in 10.0 mi WNW 4.6 mph - N/A   Clear
4:51 AM 82.0 °F 89.4 °F 75.9 °F 82% 29.99 in 10.0 mi West 4.6 mph - N/A   Partly Cloudy
5:51 AM 81.0 °F 87.3 °F 75.9 °F 85% 30.00 in 10.0 mi West 4.6 mph - N/A   Clear
6:51 AM 82.0 °F 88.6 °F 75.0 °F 79% 30.02 in 10.0 mi WNW 5.8 mph - N/A   Clear
7:51 AM 82.9 °F 91.8 °F 77.0 °F 82% 30.03 in 10.0 mi WNW 5.8 mph - N/A   Mostly Cloudy
8:13 AM 82.4 °F 90.9 °F 77.0 °F 84% 30.03 in 10.0 mi NW 6.9 mph - N/A   Partly Cloudy
8:51 AM 84.0 °F 93.7 °F 77.0 °F 79% 30.03 in 10.0 mi NW 11.5 mph - N/A   Clear
9:51 AM 86.0 °F 96.9 °F 77.0 °F 74% 30.04 in 10.0 mi NW 9.2 mph - N/A   Scattered Clouds
9:58 AM 84.2 °F 92.3 °F 75.2 °F 74% 30.04 in 10.0 mi West 9.2 mph - N/A   Mostly Cloudy
10:25 AM 86.0 °F 95.1 °F 75.2 °F 70% 30.03 in 10.0 mi WNW 11.5 mph - N/A   Partly Cloudy
10:51 AM 87.1 °F 96.3 °F 75.0 °F 67% 30.04 in 10.0 mi NW 8.1 mph - N/A   Scattered Clouds
11:51 AM 87.1 °F 96.3 °F 75.0 °F 67% 30.03 in 10.0 mi WNW 8.1 mph - N/A   Partly Cloudy
12:51 PM 88.0 °F 98.5 °F 75.9 °F 67% 30.02 in 10.0 mi North 5.8 mph - N/A   Clear
1:51 PM 89.1 °F 100.2 °F 75.9 °F 65% 30.00 in 10.0 mi Variable 4.6 mph - N/A   Clear
2:51 PM 91.0 °F 101.6 °F 75.0 °F 59% 29.99 in 10.0 mi NNE 3.5 mph - N/A   Clear
3:51 PM 86.0 °F 96.9 °F 77.0 °F 74% 29.96 in 10.0 mi WSW 15.0 mph 20.7 mph N/A   Mostly Cloudy
4:51 PM 87.1 °F 96.3 °F 75.0 °F 67% 29.97 in 10.0 mi West 5.8 mph - N/A   Partly Cloudy
5:51 PM 84.9 °F 90.1 °F 71.1 °F 63% 29.96 in 10.0 mi WSW 3.5 mph - N/A   Clear
6:51 PM 87.1 °F 98.8 °F 77.0 °F 72% 29.94 in 10.0 mi WSW 6.9 mph - N/A   Clear
7:51 PM 84.9 °F 95.3 °F 77.0 °F 77% 29.94 in 10.0 mi SW 5.8 mph - N/A   Clear
8:51 PM 84.9 °F 94.1 °F 75.9 °F 74% 29.95 in 10.0 mi WSW 5.8 mph - N/A   Partly Cloudy
9:51 PM 86.0 °F 96.0 °F 75.9 °F 72% 29.97 in 10.0 mi SW 5.8 mph - N/A   Partly Cloudy
10:51 PM 84.9 °F 96.6 °F 78.1 °F 80% 29.96 in 10.0 mi WSW 9.2 mph - N/A   Scattered Clouds
11:51 PM 84.0 °F 94.8 °F 78.1 °F 82% 29.97 in 10.0 mi WSW 5.8 mph - 0.00 in Rain Light Rain